TimeEDT,TemperatureF,Dew PointF,Humidity,Sea Level PressureIn,VisibilityMPH,Wind Direction,Wind SpeedMPH,Gust SpeedMPH,PrecipitationIn,Events,Conditions,WindDirDegrees,DateUTC
12:53 AM,39.9,30.0,68,29.86,10.0,West,4.6,-,N/A,,Overcast,280,2012-11-02 04:53:00
1:53 AM,41.0,32.0,70,29.86,10.0,WNW,6.9,-,0.01,,Overcast,300,2012-11-02 05:53:00
2:53 AM,39.9,33.1,77,29.86,10.0,NW,5.8,-,N/A,,Overcast,310,2012-11-02 06:53:00
3:53 AM,37.9,32.0,79,29.88,10.0,NW,5.8,-,N/A,,Scattered Clouds,320,2012-11-02 07:53:00
4:27 AM,39.2,33.8,81,29.88,10.0,NNW,6.9,-,N/A,,Mostly Cloudy,330,2012-11-02 08:27:00
4:53 AM,37.9,32.0,79,29.90,10.0,NNW,5.8,-,N/A,,Scattered Clouds,330,2012-11-02 08:53:00
5:53 AM,36.0,32.0,86,29.92,10.0,NW,5.8,-,N/A,,Clear,320,2012-11-02 09:53:00
6:53 AM,33.1,28.9,85,29.94,10.0,NW,5.8,-,N/A,,Clear,310,2012-11-02 10:53:00
7:53 AM,35.1,27.0,72,29.95,10.0,NW,4.6,-,N/A,,Scattered Clouds,320,2012-11-02 11:53:00
8:53 AM,33.1,27.0,78,29.98,10.0,WNW,5.8,-,N/A,,Clear,290,2012-11-02 12:53:00
9:53 AM,41.0,32.0,70,30.01,10.0,NNW,12.7,-,N/A,,Scattered Clouds,330,2012-11-02 13:53:00
10:53 AM,42.1,32.0,67,30.02,10.0,NNW,12.7,-,N/A,,Mostly Cloudy,340,2012-11-02 14:53:00
11:53 AM,44.1,30.0,58,30.04,10.0,NNW,12.7,-,N/A,,Scattered Clouds,340,2012-11-02 15:53:00
12:53 PM,45.0,28.9,53,30.04,10.0,North,12.7,-,N/A,,Mostly Cloudy,350,2012-11-02 16:53:00
1:53 PM,45.0,28.9,53,30.03,10.0,NW,10.4,-,N/A,,Scattered Clouds,320,2012-11-02 17:53:00
2:53 PM,46.0,28.9,51,30.04,10.0,NW,11.5,-,N/A,,Overcast,310,2012-11-02 18:53:00
3:53 PM,46.0,30.0,54,30.04,10.0,NNW,12.7,-,N/A,,Overcast,330,2012-11-02 19:53:00
4:53 PM,45.0,30.0,56,30.06,10.0,North,12.7,-,N/A,,Overcast,350,2012-11-02 20:53:00
5:53 PM,44.1,30.0,58,30.07,10.0,NNW,10.4,-,N/A,,Scattered Clouds,340,2012-11-02 21:53:00
6:53 PM,41.0,30.9,67,30.09,10.0,NW,6.9,-,N/A,,Scattered Clouds,320,2012-11-02 22:53:00
7:53 PM,36.0,28.9,76,30.10,10.0,WNW,5.8,-,N/A,,Clear,300,2012-11-02 23:53:00
8:53 PM,36.0,28.9,76,30.11,10.0,NW,5.8,-,N/A,,Clear,320,2012-11-03 00:53:00
9:53 PM,35.1,28.9,78,30.11,10.0,NW,5.8,-,N/A,,Clear,320,2012-11-03 01:53:00
10:53 PM,33.1,28.9,85,30.13,10.0,NW,4.6,-,N/A,,Partly Cloudy,320,2012-11-03 02:53:00
11:53 PM,33.1,28.9,85,30.13,10.0,NNW,5.8,-,N/A,,Clear,340,2012-11-03 03:53:00